This demonstration page uses our WeatherBlox Daily Observations layout. Learn more.

Left ArrowRight Arrow

Hourly Observations for May 17, 2021

Temp ( °F °C ) Dew Point ( °F °C ) Humidity (%) Winds ( mph kmh ) Pressure ( in mb ) Visibility ( mi km ) Precip ( " mm )
12:15 am 00:15 Clear 62 16.7 51 10.6 67 67 SE 7 11 30.15 1021 10 16 0.00 0.00
12:35 am 00:35 Clear 62 16.6 51 10.8 69 69 SE 7 11 30.15 1021 10 16 0.00 0.00
12:55 am 00:55 Clear 61 16.3 52 11 71 71 ESE 3 6 30.15 1021 10 16 0.00 0.00
1:15 am 01:15 Clear 61 16 52 11.1 73 73 SE 5 7 30.15 1021 10 16 0.00 0.00
1:35 am 01:35 Clear 61 16 52 11 72 72 Calm 30.16 1021 10 16 0.00 0.00
1:55 am 01:55 Partly Cloudy 60 15.8 52 11.2 74 74 E 3 6 30.15 1021 10 16 0.00 0.00
2:15 am 02:15 Partly Cloudy 60 15.3 53 11.5 78 78 ESE 3 6 30.14 1021 10 16 0.00 0.00
2:35 am 02:35 Clear 59 15.1 53 11.5 79 79 E 3 6 30.14 1021 10 16 0.00 0.00
2:55 am 02:55 Clear 59 15 53 11.4 79 79 Calm 30.14 1021 10 16 0.00 0.00
3:15 am 03:15 Partly Cloudy 58 14.7 53 11.5 81 81 Calm 30.15 1021 10 16 0.00 0.00
3:35 am 03:35 Cloudy 58 14.5 53 11.9 85 85 Calm 30.16 1021 10 16 0.00 0.00
3:55 am 03:55 Cloudy with Light Rain 58 14.5 53 11.9 85 85 Calm 30.15 1021 10 16 0.00 0.00
4:15 am 04:15 Cloudy with Rain 58 14.5 53 11.7 83 83 Calm 30.16 1021 10 16 0.00 0.00
4:35 am 04:35 Cloudy with Rain 57 14.1 54 12.3 89 89 Calm 30.17 1022 7 11 0.02 0.51
4:55 am 04:55 Cloudy with Rain 57 13.7 55 12.6 93 93 Calm 30.18 1022 7 11 0.06 1.52
5:15 am 05:15 Cloudy with Rain 56 13.6 55 13 96 96 E 5 7 30.17 1022 7 11 0.03 0.76
5:35 am 05:35 Cloudy with Rain 56 13.5 55 12.8 96 96 E 6 9 30.16 1021 10 16 0.03 0.76
5:55 am 05:55 Cloudy with Light Rain 56 13.6 55 12.8 95 95 E 9 15 30.16 1021 10 16 0.04 1.02
6:15 am 06:15 Cloudy with Rain 56 13.6 55 12.7 94 94 E 8 13 30.16 1021 10 16 0.00 0.00
6:35 am 06:35 Cloudy with Light Rain 56 13.6 55 12.8 95 95 E 9 15 30.16 1021 10 16 0.01 0.25
6:55 am 06:55 Cloudy with Light Rain 56 13.5 55 12.6 94 94 E 7 11 30.16 1021 10 16 0.03 0.76
7:15 am 07:15 Cloudy with Rain 56 13.5 55 12.7 95 95 ESE 10 17 30.16 1021 10 16 0.01 0.25
7:35 am 07:35 Cloudy with Drizzle 56 13.5 55 12.8 96 96 ESE 6 9 30.18 1022 10 16 0.01 0.25
7:55 am 07:55 Cloudy with Rain 56 13.5 55 12.9 96 96 ESE 7 11 30.19 1022 7 11 0.01 0.25
8:15 am 08:15 Cloudy with Rain 56 13.5 55 12.8 96 96 ESE 8 13 30.19 1022 7 11 0.01 0.25
8:35 am 08:35 Cloudy with Rain 56 13.5 55 12.9 96 96 ESE 8 13 30.19 1022 5 8 0.04 1.02
8:55 am 08:55 Cloudy 56 13.6 55 13 96 96 ESE 6 9 30.21 1023 7 11 0.06 1.52
9:15 am 09:15 Cloudy with Rain 56 13.6 55 13 96 96 E 9 15 30.18 1022 5 8 0.02 0.51
9:35 am 09:35 Cloudy with Drizzle 57 13.7 56 13.1 96 96 ESE 7 11 30.19 1022 10 16 0.03 0.76
9:55 am 09:55 Cloudy with Light Rain 57 14.1 56 13.5 96 96 SE 7 11 30.21 1023 10 16 0.03 0.76
10:15 am 10:15 Cloudy with Rain 58 14.5 56 13.6 94 94 ESE 8 13 30.21 1023 10 16 0.00 0.00
10:35 am 10:35 Cloudy with Drizzle 58 14.5 57 13.7 95 95 ESE 9 15 30.20 1023 7 11 0.00 0.00
10:55 am 10:55 Cloudy with Drizzle 58 14.6 57 13.8 95 95 SE 7 11 30.20 1023 10 16 0.00 0.00
11:15 am 11:15 Cloudy with Rain 58 14.6 57 14 96 96 SE 7 11 30.21 1023 10 16 0.00 0.00
11:35 am 11:35 Cloudy with Light Rain 59 14.8 57 13.9 94 94 ESE 9 15 30.20 1023 7 11 0.01 0.25
11:55 am 11:55 Cloudy with Light Rain 59 14.8 57 14 95 95 SE 9 15 30.21 1023 7 11 0.03 0.76
12:15 pm 12:15 Cloudy with Rain 59 14.8 57 14 95 95 SE 7 11 30.21 1023 7 11 0.02 0.51
12:35 pm 12:35 Cloudy with Light Rain 59 15 58 14.2 95 95 ESE 9 15 30.20 1023 7 11 0.04 1.02
12:55 pm 12:55 Cloudy with Light Rain 59 15 58 14.2 95 95 SE 9 15 30.21 1023 10 16 0.06 1.52
1:15 pm 13:15 Cloudy with Rain 59 15.1 58 14.3 95 95 SE 9 15 30.20 1023 4 6 0.03 0.76
1:35 pm 13:35 Cloudy with Light Rain 59 15 57 14.1 94 94 SE 10 17 30.20 1023 5 8 0.07 1.78
1:55 pm 13:55 Cloudy with Rain 59 15 57 14 94 94 ESE 13 20 30.20 1023 7 11 0.09 2.29
2:15 pm 14:15 Cloudy with Rain 59 15 57 14.1 94 94 ESE 9 15 30.20 1023 7 11 0.01 0.25
2:35 pm 14:35 Cloudy 59 15 57 14.1 94 94 ESE 8 13 30.21 1023 10 16 0.01 0.25
2:55 pm 14:55 Cloudy 59 15 57 13.8 93 93 ESE 8 13 30.20 1023 10 16 0.01 0.25
3:15 pm 15:15 Cloudy 59 15.2 57 13.9 92 92 ESE 15 24 30.20 1023 10 16 0.00 0.00
3:35 pm 15:35 Cloudy 60 15.5 58 14.2 92 92 SE 12 19 30.20 1023 10 16 0.00 0.00
3:55 pm 15:55 Cloudy 60 15.5 57 14.1 91 91 ESE 13 20 30.19 1022 10 16 0.00 0.00
4:15 pm 16:15 Cloudy 60 15.8 57 14.1 90 90 ESE 10 17 30.18 1022 10 16 0.00 0.00
4:35 pm 16:35 Cloudy 61 15.9 57 14.1 89 89 ESE 10 17 30.20 1023 10 16 0.00 0.00
4:55 pm 16:55 Cloudy 61 16.1 57 14.1 88 88 ESE 8 13 30.19 1022 10 16 0.00 0.00
5:15 pm 17:15 Mostly Cloudy 62 16.8 58 14.2 85 85 ESE 12 19 30.18 1022 10 16 0.00 0.00
5:35 pm 17:35 Cloudy 62 16.6 57 14.1 85 85 ESE 9 15 30.18 1022 10 16 0.00 0.00
5:55 pm 17:55 Partly Cloudy 62 16.6 56 13.6 83 83 ESE 10 17 30.18 1022 10 16 0.00 0.00
6:15 pm 18:15 Mostly Cloudy 62 16.6 57 13.8 84 84 E 13 20 30.18 1022 10 16 0.00 0.00
6:35 pm 18:35 Mostly Cloudy 62 16.5 57 13.7 84 84 E 10 17 30.18 1022 10 16 0.00 0.00
6:55 pm 18:55 Mostly Cloudy 62 16.5 57 13.7 84 84 E 12 19 30.18 1022 10 16 0.00 0.00
7:15 pm 19:15 Mostly Cloudy 62 16.5 57 13.8 84 84 ESE 10 17 30.18 1022 10 16 0.00 0.00
7:35 pm 19:35 Partly Cloudy 62 16.5 57 13.9 85 85 SE 10 17 30.18 1022 10 16 0.00 0.00
7:55 pm 19:55 Sunny 62 16.5 57 13.7 84 84 ESE 10 17 30.18 1022 10 16 0.00 0.00
8:15 pm 20:15 Partly Cloudy 61 16.2 57 13.7 85 85 ESE 9 15 30.18 1022 10 16 0.00 0.00
8:35 pm 20:35 Mostly Cloudy 61 16 56 13.6 86 86 ESE 8 13 30.18 1022 10 16 0.00 0.00
8:55 pm 20:55 Mostly Cloudy 61 15.9 57 13.7 87 87 ESE 9 15 30.18 1022 10 16 0.00 0.00
9:15 pm 21:15 Cloudy 60 15.7 57 13.8 89 89 E 7 11 30.18 1022 10 16 0.00 0.00
9:35 pm 21:35 Cloudy with Light Rain 60 15.6 57 13.8 89 89 ESE 6 9 30.20 1023 10 16 0.00 0.00
9:55 pm 21:55 Cloudy with Drizzle 60 15.5 57 14 91 91 ESE 6 9 30.20 1023 10 16 0.00 0.00
10:15 pm 22:15 Cloudy 60 15.3 57 14 92 92 ESE 6 9 30.21 1023 10 16 0.00 0.00
10:35 pm 22:35 Cloudy 60 15.3 57 14 92 92 E 6 9 30.21 1023 10 16 0.00 0.00
10:55 pm 22:55 Cloudy 59 15.2 57 14 93 93 E 7 11 30.21 1023 10 16 0.00 0.00
11:15 pm 23:15 Cloudy 59 15.1 57 14 93 93 ESE 7 11 30.22 1023 10 16 0.00 0.00
11:35 pm 23:35 Cloudy 59 15.1 57 14 93 93 ESE 6 9 30.21 1023 10 16 0.00 0.00
11:55 pm 23:55 Cloudy 59 15 57 13.9 93 93 ESE 8 13 30.21 1023 10 16 0.00 0.00

Powered by AerisWeather